Weather History for KLNK - September, 2011

Change the Weather History Date:

Saturday, September 24, 2011

  Actual Average Record
Temperature  
Mean Temperature 57 °F 62 °F  
Max Temperature 72 °F 75 °F 93 °F (2005)
Min Temperature 42 °F 49 °F 31 °F (1942)
Degree Days  
Heating Degree Days 8 5  
Month to date heating degree days 123 57  
Since 1 July heating degree days 123 63  
Cooling Degree Days 0 2  
Month to date cooling degree days 59 112  
Year to date cooling degree days 1258 1147  
Growing Degree Days 7 (Base 50)    
Moisture  
Dew Point 42 °F    
Average Humidity 61    
Maximum Humidity 89    
Minimum Humidity 33    
Precipitation  
Precipitation 0.00 in 0.09 in 1.74 in (1913)
Month to date precipitation 1.33 2.50  
Year to date precipitation 25.00 24.08  
Snow  
Snow 0.00 in 0.00 in - ()
Month to date snowfall 0.0 0.0  
Since 1 July snowfall 0.0 0.0  
Snow Depth 0.00 in    
Sea Level Pressure  
Sea Level Pressure 29.96 in    
Wind  
Wind Speed 5 mph (ESE)    
Max Wind Speed 15 mph    
Max Gust Speed 20 mph    
Visibility 10 miles    
Events      
T = Trace of Precipitation, MM = Missing Value Source: NWS Daily Summary

Daily Weather History Graph

Daily Weather History Graph

Search for Another Location

Airport or City:

Trip Planner

Search our weather history database for the weather conditions in past years. The results will help you decide how hot, cold, wet, or windy it might be!

Date:

Astronomy

Sep. 24, 2011 Rise Set
Actual Time 7:16 AM CDT 7:21 PM CDT
Civil Twilight 6:48 AM CDT 7:48 PM CDT
Nautical Twilight 6:16 AM CDT 8:20 PM CDT
Astronomical Twilight 5:44 AM CDT 8:52 PM CDT
Moon 3:52 AM CDT (9/24) 5:29 PM CDT (9/24)
Length of Visible Light 12h 59m
Length of Day
12h 04m
Waning Crescent, 11% of the Moon is Illuminated
Sep 24
Waning Crescent
Sep 27
New
Oct 3
First Quarter
Oct 11
Full
Oct 19
Last Quarter

Hourly Weather History & Observations

Time (CDT) Temp. Windchill Dew Point Humidity Pressure Visibility Wind Dir Wind Speed Gust Speed Precip Events Conditions
12:54 AM 48.0 °F - 43.0 °F 83% 30.01 in 10.0 mi Calm Calm - N/A   Clear
1:54 AM 44.6 °F - 39.2 °F 81% 30.01 in 10.0 mi Calm Calm - N/A   Clear
2:54 AM 42.8 °F 41.1 °F 39.2 °F 87% 30.01 in 10.0 mi North 3.5 mph - N/A   Clear
3:54 AM 45.0 °F - 41.0 °F 86% 30.01 in 10.0 mi Calm Calm - N/A   Clear
4:54 AM 44.1 °F 42.5 °F 41.0 °F 89% 30.00 in 10.0 mi NNE 3.5 mph - N/A   Clear
5:54 AM 43.0 °F - 39.9 °F 89% 29.98 in 10.0 mi Calm Calm - N/A   Clear
6:54 AM 44.1 °F - 39.9 °F 85% 29.98 in 10.0 mi Calm Calm - N/A   Clear
7:54 AM 46.0 °F - 42.1 °F 86% 29.99 in 10.0 mi Calm Calm - N/A   Clear
8:54 AM 51.8 °F - 44.6 °F 76% 29.98 in 10.0 mi East 3.5 mph - N/A   Clear
9:54 AM 59.0 °F - 46.0 °F 62% 29.98 in 10.0 mi SSE 8.1 mph - N/A   Clear
10:54 AM 62.6 °F - 44.6 °F 52% 29.98 in 10.0 mi SE 6.9 mph - N/A   Clear
11:54 AM 66.9 °F - 44.1 °F 44% 29.96 in 10.0 mi SSE 9.2 mph - N/A   Clear
12:54 PM 69.1 °F - 41.0 °F 36% 29.95 in 10.0 mi SSE 8.1 mph - N/A   Clear
1:54 PM 69.1 °F - 39.9 °F 35% 29.92 in 10.0 mi Variable 5.8 mph - N/A   Clear
2:54 PM 71.1 °F - 42.1 °F 35% 29.91 in 10.0 mi ENE 5.8 mph - N/A   Clear
3:54 PM 72.0 °F - 42.1 °F 34% 29.90 in 10.0 mi Variable 4.6 mph - N/A   Clear
4:54 PM 70.0 °F - 45.0 °F 41% 29.90 in 10.0 mi ESE 11.5 mph - N/A   Clear
5:54 PM 68.0 °F - 43.0 °F 40% 29.91 in 10.0 mi East 9.2 mph - N/A   Clear
6:54 PM 64.9 °F - 42.1 °F 43% 29.93 in 10.0 mi East 6.9 mph - N/A   Clear
7:54 PM 57.0 °F - 44.1 °F 62% 29.94 in 10.0 mi NE 8.1 mph - N/A   Clear
8:54 PM 60.1 °F - 44.1 °F 55% 29.95 in 10.0 mi East 8.1 mph - N/A   Clear
9:54 PM 59.0 °F - 44.1 °F 58% 29.96 in 10.0 mi ESE 10.4 mph - N/A   Clear
10:54 PM 55.4 °F - 42.8 °F 63% 29.97 in 10.0 mi SE 9.2 mph - N/A   Clear
11:54 PM 54.0 °F - 42.1 °F 64% 29.96 in 10.0 mi SE 6.9 mph - N/A   Clear